STARLINK AN

Last updated on June 19, 2020, 12:02 a.m. UTC

1 45766U 20038AN  20170.75001157  .00114972  11277-4  14211-3 0  9995
2 45766  52.9994 271.8056 0111171  69.4586 148.9017 15.96241673  1956

Satellite is not in orbit.